Weather History for Morris, IL

Change the Weather History Date:

Sunday, February 17, 2013

  Actual Average (KLOT) Record (KLOT)
Temperature  
Mean Temperature 20 °F 28 °F  
Max Temperature 32 °F 36 °F 58 °F (2011)
Min Temperature 7 °F 20 °F -8 °F (2007)
Degree Days  
Heating Degree Days 46 37  
Month to date heating degree days 666  
Since 1 July heating degree days 4347  
Cooling Degree Days 0 0  
Month to date cooling degree days 0  
Year to date cooling degree days 0  
Moisture  
Dew Point 11 °F    
Average Humidity 65    
Maximum Humidity 83    
Minimum Humidity 43    
Precipitation  
Precipitation 0.00 in 0.07 in 0.85 in (2008)
Month to date precipitation 0.97  
Year to date precipitation 2.90  
Snow  
Snow 0.00 in 0.20 in 0.00 in (2007)
Month to date snowfall 4.1  
Since 1 July snowfall 25.1  
Snow Depth -    
Sea Level Pressure  
Sea Level Pressure 30.13 in    
Wind  
Wind Speed 5 mph (South)    
Max Wind Speed 20 mph    
Max Gust Speed 25 mph    
Visibility 10 miles    
Events      
T = Trace of Precipitation, MM = Missing Value Source: NWS Daily Summary

Daily Weather History Graph

Daily Weather History Graph

Search for Another Location

Airport:

Trip Planner

Search our weather history database for the weather conditions in past years. The results will help you decide how hot, cold, wet, or windy it might be!

Date:

Astronomy

Feb. 17, 2013 Rise Set
Actual Time 6:45 AM CST 5:30 PM CST
Civil Twilight 6:17 AM CST 5:58 PM CST
Nautical Twilight 5:45 AM CST 6:30 PM CST
Astronomical Twilight 5:13 AM CST 7:02 PM CST
Moon 10:32 AM CST 12:31 AM CST
Length of Visible Light 11h 41m
Length of Day
10h 44m
Waxing Crescent, 49% of the Moon is Illuminated
Feb 17
Waxing Crescent
Feb 17
First Quarter
Feb 25
Full
Mar 4
Last Quarter
Mar 11
New

Hourly Weather History & Observations

Time (CST) Temp. Windchill Dew Point Humidity Pressure Visibility Wind Dir Wind Speed Gust Speed Precip Events Conditions
12:15 AM 10.9 °F 4.7 °F 5.2 °F 78% 30.18 in 10.0 mi West 3.5 mph - N/A   Clear
12:35 AM 10.2 °F 0.6 °F 5.2 °F 80% 30.18 in 10.0 mi West 5.8 mph - N/A   Clear
12:55 AM 10.8 °F - 5.5 °F 79% 30.18 in 10.0 mi Calm Calm - N/A   Clear
1:15 AM 10.2 °F - 5.4 °F 81% 30.18 in 10.0 mi Calm Calm - N/A   Clear
1:35 AM 10.8 °F 4.5 °F 5.9 °F 81% 30.18 in 10.0 mi West 3.5 mph - N/A   Clear
1:55 AM 9.3 °F 2.8 °F 5.0 °F 83% 30.18 in 10.0 mi West 3.5 mph - N/A   Clear
2:15 AM 9.3 °F 1.0 °F 5.0 °F 83% 30.18 in 10.0 mi WNW 4.6 mph - N/A   Clear
2:35 AM 10.4 °F 2.2 °F 5.0 °F 79% 30.18 in 10.0 mi West 4.6 mph - N/A   Clear
2:55 AM 9.5 °F -0.3 °F 4.1 °F 79% 30.18 in 10.0 mi West 5.8 mph - N/A   Clear
3:15 AM 9.1 °F 0.8 °F 4.6 °F 82% 30.17 in 10.0 mi West 4.6 mph - N/A   Clear
3:35 AM 8.6 °F 0.1 °F 3.7 °F 81% 30.18 in 10.0 mi WNW 4.6 mph - N/A   Clear
3:55 AM 9.9 °F - 4.1 °F 78% 30.17 in 10.0 mi Calm Calm - N/A   Clear
4:15 AM 9.3 °F 2.8 °F 4.1 °F 79% 30.18 in 10.0 mi NW 3.5 mph - N/A   Clear
4:35 AM 9.0 °F - 4.8 °F 83% 30.18 in 10.0 mi Calm Calm - N/A   Clear
4:55 AM 10.4 °F - 4.8 °F 78% 30.18 in 10.0 mi Calm Calm - N/A   Clear
5:15 AM 9.5 °F 3.0 °F 4.8 °F 81% 30.19 in 10.0 mi NW 3.5 mph - N/A   Clear
5:35 AM 9.1 °F 0.8 °F 4.6 °F 82% 30.20 in 10.0 mi West 4.6 mph - N/A   Clear
5:55 AM 7.7 °F 1.0 °F 3.2 °F 82% 30.20 in 10.0 mi West 3.5 mph - N/A   Clear
6:15 AM 9.1 °F 0.8 °F 4.8 °F 83% 30.20 in 10.0 mi WNW 4.6 mph - N/A   Clear
6:35 AM 9.1 °F 2.6 °F 5.0 °F 83% 30.20 in 10.0 mi WNW 3.5 mph - N/A   Clear
6:55 AM 9.7 °F - 5.0 °F 81% 30.20 in 10.0 mi Calm Calm - N/A   Clear
7:15 AM 10.2 °F - 5.7 °F 82% 30.21 in 10.0 mi Calm Calm - N/A   Clear
7:35 AM 11.3 °F - 6.8 °F 82% 30.21 in 10.0 mi Calm Calm - N/A   Clear
7:55 AM 13.8 °F - 7.7 °F 77% 30.21 in 10.0 mi Calm Calm - N/A   Clear
8:15 AM 15.8 °F - 8.2 °F 72% 30.21 in 10.0 mi Calm Calm - N/A   Clear
8:35 AM 16.9 °F - 4.8 °F 59% 30.21 in 10.0 mi Calm Calm - N/A   Clear
8:55 AM 18.3 °F 13.1 °F 4.3 °F 54% 30.20 in 10.0 mi ESE 3.5 mph - N/A   Clear
9:15 AM 19.4 °F - 3.9 °F 51% 30.21 in 10.0 mi Calm Calm - N/A   Clear
9:35 AM 19.6 °F 14.5 °F 5.0 °F 53% 30.21 in 10.0 mi SW 3.5 mph - N/A   Clear
9:55 AM 20.8 °F 16.0 °F 5.2 °F 51% 30.21 in 10.0 mi SE 3.5 mph - N/A   Clear
10:15 AM 21.2 °F 13.6 °F 6.3 °F 53% 30.20 in 10.0 mi ESE 5.8 mph - N/A   Clear
10:35 AM 22.3 °F 17.6 °F 5.5 °F 49% 30.20 in 10.0 mi SE 3.5 mph - N/A   Clear
10:55 AM 22.8 °F 18.2 °F 5.7 °F 48% 30.21 in 10.0 mi SE 3.5 mph - N/A   Clear
11:15 AM 24.4 °F 20.1 °F 7.0 °F 48% 30.21 in 10.0 mi South 3.5 mph - N/A   Clear
11:35 AM 25.5 °F 18.7 °F 5.7 °F 43% 30.21 in 10.0 mi South 5.8 mph - N/A   Clear
11:55 AM 26.4 °F 18.9 °F 8.2 °F 46% 30.20 in 10.0 mi SSW 6.9 mph - N/A   Clear
12:15 PM 26.8 °F 18.5 °F 8.6 °F 46% 30.19 in 10.0 mi South 8.1 mph - N/A   Clear
12:55 PM 28.6 °F 22.4 °F 9.5 °F 45% 30.17 in 10.0 mi SW 5.8 mph - N/A   Clear
1:15 PM 29.5 °F 22.5 °F 10.6 °F 45% 30.16 in 10.0 mi South 6.9 mph - N/A   Clear
1:35 PM 30.4 °F 23.6 °F 10.2 °F 43% 30.16 in 10.0 mi SSE 6.9 mph - N/A   Clear
1:55 PM 31.3 °F 23.3 °F 11.5 °F 44% 30.14 in 10.0 mi SSE 9.2 mph - N/A   Clear
2:15 PM 31.5 °F 24.9 °F 11.7 °F 44% 30.13 in 10.0 mi South 6.9 mph - N/A   Clear
2:35 PM 31.8 °F 23.9 °F 11.5 °F 43% 30.12 in 10.0 mi South 9.2 mph - N/A   Clear
2:55 PM 31.8 °F 23.3 °F 11.8 °F 44% 30.11 in 10.0 mi SSE 10.4 mph - N/A   Clear
3:15 PM 32.0 °F 24.2 °F 12.9 °F 45% 30.10 in 10.0 mi SSE 9.2 mph - N/A   Clear
3:35 PM 32.9 °F 23.7 °F 14.2 °F 46% 30.10 in 10.0 mi SE 12.7 mph - N/A   Clear
3:55 PM 32.2 °F 22.7 °F 14.9 °F 49% 30.10 in 10.0 mi SE 12.7 mph - N/A   Clear
4:15 PM 32.0 °F 24.2 °F 15.4 °F 51% 30.10 in 10.0 mi SSE 9.2 mph - N/A   Clear
4:35 PM 32.0 °F 23.6 °F 16.3 °F 52% 30.09 in 10.0 mi SSE 10.4 mph - N/A   Clear
4:55 PM 31.6 °F 23.1 °F 16.7 °F 54% 30.09 in 10.0 mi SSE 10.4 mph - N/A   Clear
5:15 PM 31.1 °F 22.4 °F 18.0 °F 58% 30.08 in 10.0 mi SSE 10.4 mph - N/A   Clear
5:35 PM 30.7 °F 23.3 °F 18.0 °F 59% 30.08 in 10.0 mi SE 8.1 mph - N/A   Clear
5:55 PM 30.2 °F 22.6 °F 18.3 °F 61% 30.07 in 10.0 mi SE 8.1 mph - N/A   Clear
6:15 PM 29.3 °F 22.3 °F 19.4 °F 67% 30.07 in 10.0 mi ESE 6.9 mph - N/A   Clear
6:35 PM 29.1 °F 22.1 °F 19.2 °F 67% 30.07 in 10.0 mi SE 6.9 mph - N/A   Clear
6:55 PM 28.4 °F 21.2 °F 19.4 °F 69% 30.06 in 10.0 mi SE 6.9 mph - N/A   Clear
7:15 PM 28.4 °F 19.7 °F 19.8 °F 70% 30.06 in 10.0 mi SE 9.2 mph - N/A   Clear
7:35 PM 28.8 °F 20.9 °F 20.1 °F 70% 30.05 in 10.0 mi SE 8.1 mph - N/A   Clear
7:55 PM 29.1 °F 20.0 °F 20.5 °F 70% 30.05 in 10.0 mi SE 10.4 mph - N/A   Clear
8:15 PM 28.9 °F 20.4 °F 21.0 °F 72% 30.04 in 10.0 mi SE 9.2 mph - N/A   Clear
8:35 PM 29.8 °F 20.9 °F 20.5 °F 68% 30.03 in 10.0 mi SE 10.4 mph - N/A   Clear
8:55 PM 29.8 °F 20.9 °F 20.3 °F 68% 30.04 in 10.0 mi SE 10.4 mph - N/A   Clear
9:15 PM 30.6 °F 20.2 °F 20.3 °F 66% 30.04 in 10.0 mi SSE 13.8 mph 19.6 mph N/A   Clear
9:35 PM 30.9 °F 20.2 °F 19.8 °F 63% 30.04 in 10.0 mi SSE 15.0 mph 19.6 mph N/A   Clear
9:55 PM 30.9 °F 20.2 °F 19.8 °F 63% 30.03 in 10.0 mi SSE 15.0 mph - N/A   Clear
10:15 PM 30.9 °F 20.2 °F 19.4 °F 62% 30.02 in 10.0 mi SSE 15.0 mph - N/A   Clear
10:35 PM 30.9 °F 19.8 °F 19.4 °F 62% 30.01 in 10.0 mi SSE 16.1 mph 21.9 mph N/A   Clear
10:55 PM 31.1 °F 20.1 °F 19.4 °F 62% 30.00 in 10.0 mi SSE 16.1 mph - N/A   Clear
11:15 PM 31.6 °F 19.7 °F 19.8 °F 62% 29.99 in 10.0 mi SSE 19.6 mph 25.3 mph N/A   Clear
11:35 PM 31.1 °F 20.1 °F 20.3 °F 64% 29.98 in 10.0 mi SSE 16.1 mph 24.2 mph N/A   Clear
11:55 PM 31.1 °F 19.7 °F 20.3 °F 64% 29.98 in 10.0 mi SSE 17.3 mph 21.9 mph N/A   Clear